Time,TemperatureF,DewpointF,PressureIn,WindDirection,WindDirectionDegrees,WindSpeedMPH,WindSpeedGustMPH,Humidity,HourlyPrecipIn,Conditions,Clouds,dailyrainin,SoftwareType,DateUTC
2013-06-11 04:35:00,59.5,56.9,29.67,North,0,0.0,0.0,91,0.00,,,0.00,WUHU216HW,2013-06-11 09:35:00,
2013-06-11 04:36:00,59.5,56.9,29.67,North,0,0.0,0.0,91,0.00,,,0.00,WUHU216HW,2013-06-11 09:36:00,
2013-06-11 04:39:00,59.5,56.9,29.67,North,0,0.0,0.0,91,0.00,,,0.00,WUHU216HW,2013-06-11 09:39:00,
2013-06-11 04:44:00,59.5,56.9,29.68,North,0,0.0,0.0,91,0.00,,,0.00,WUHU216HW,2013-06-11 09:44:00,
2013-06-11 04:49:00,59.3,56.7,29.68,North,0,0.0,0.0,91,0.00,,,0.00,WUHU216HW,2013-06-11 09:49:00,
2013-06-11 04:54:00,59.3,56.7,29.67,North,0,0.0,0.0,91,0.00,,,0.00,WUHU216HW,2013-06-11 09:54:00,
2013-06-11 04:59:00,59.0,56.4,29.67,North,0,0.0,0.0,91,0.00,,,0.00,WUHU216HW,2013-06-11 09:59:00,
2013-06-11 05:04:00,58.8,56.2,29.68,North,0,0.0,0.0,91,0.00,,,0.00,WUHU216HW,2013-06-11 10:04:00,
2013-06-11 05:09:00,58.6,56.0,29.68,North,0,0.0,0.0,91,0.00,,,0.00,WUHU216HW,2013-06-11 10:09:00,
2013-06-11 05:14:00,58.4,55.8,29.68,North,0,0.0,0.0,91,0.00,,,0.00,WUHU216HW,2013-06-11 10:14:00,
2013-06-11 05:19:00,58.2,55.6,29.68,North,0,0.0,0.0,91,0.00,,,0.00,WUHU216HW,2013-06-11 10:19:00,
2013-06-11 05:24:00,58.2,55.6,29.68,North,0,0.0,0.0,91,0.00,,,0.00,WUHU216HW,2013-06-11 10:24:00,
2013-06-11 05:29:00,58.4,56.1,29.68,North,0,0.0,0.0,92,0.00,,,0.00,WUHU216HW,2013-06-11 10:29:00,
2013-06-11 15:33:00,84.0,68.1,29.64,SW,225,0.0,0.0,59,0.00,,,0.00,WUHU216HW,2013-06-11 20:33:00,
2013-06-11 15:38:00,84.3,67.4,29.65,West,270,0.0,2.0,57,0.00,,,0.00,WUHU216HW,2013-06-11 20:38:00,
2013-06-11 15:43:00,84.3,66.9,29.65,SW,225,0.0,2.0,56,0.00,,,0.00,WUHU216HW,2013-06-11 20:43:00,
2013-06-11 18:11:00,80.4,64.2,29.65,WSW,248,0.0,0.0,58,0.00,,,0.00,WUHU216HW,2013-06-11 23:11:00,
2013-06-11 18:16:00,79.8,63.7,29.64,WSW,248,0.0,0.0,58,0.00,,,0.00,WUHU216HW,2013-06-11 23:16:00,
2013-06-11 18:21:00,79.5,64.5,29.64,WSW,248,0.0,0.0,60,0.00,,,0.00,WUHU216HW,2013-06-11 23:21:00,
2013-06-11 18:26:00,80.2,65.5,29.64,WSW,248,0.0,0.0,61,0.00,,,0.00,WUHU216HW,2013-06-11 23:26:00,
2013-06-11 18:31:00,82.2,66.9,29.65,WSW,248,0.0,0.0,60,0.00,,,0.00,WUHU216HW,2013-06-11 23:31:00,
2013-06-11 18:37:00,81.6,66.2,29.64,WSW,248,0.0,0.0,59,0.00,,,0.00,WUHU216HW,2013-06-11 23:37:00,